Hattiesburg, MS

7:02 PM CDT on July 21, 2017 (GMT -0500)
Chain Municipal

Weather History for KHBG - June, 2013

Change the Weather History Date:

Sunday, June 23, 2013

  Actual Average Record
Temperature  
Mean Temperature 81 °F 80 °F  
Max Temperature 92 °F 91 °F 102 °F (2009)
Min Temperature 70 °F 70 °F 61 °F (1961)
Degree Days  
Heating Degree Days 0 0  
Month to date heating degree days 0 0  
Since 1 June heating degree days 0 0  
Since 1 July heating degree days 1864 1985  
Cooling Degree Days 16 15  
Month to date cooling degree days 353 313  
Year to date cooling degree days 695 728  
Since 1 June cooling degree days 353 313  
Growing Degree Days 30 (Base 50)    
Moisture  
Dew Point 71 °F    
Average Humidity 76    
Maximum Humidity 100    
Minimum Humidity 52    
Precipitation  
Precipitation 0.00 in 0.23 in 1.88 in (1970)
Month to date precipitation 4.49 3.90  
Year to date precipitation 41.70 30.44  
Sea Level Pressure  
Sea Level Pressure 30.07 in    
Wind  
Wind Speed 3 mph (ESE)    
Max Wind Speed 22 mph    
Max Gust Speed 38 mph    
Visibility 10 miles    
Events      
T = Trace of Precipitation, MM = Missing Value Source: NWS Daily Summary

Daily Weather History Graph

Daily Weather History Graph

Search for Another Location

Airport or City:

Trip Planner

Search our weather history database for the weather conditions in past years. The results will help you decide how hot, cold, wet, or windy it might be!

Date:

Astronomy

Jun. 23, 2013 Rise Set
Actual Time 5:53 AM CDT 8:04 PM CDT
Civil Twilight 5:25 AM CDT 8:32 PM CDT
Nautical Twilight 4:51 AM CDT 9:06 PM CDT
Astronomical Twilight 4:14 AM CDT 9:43 PM CDT
Moon 8:22 PM CDT (6/23) 6:07 AM CDT (6/23)
Length of Visible Light 15h 06m
Length of Day
14h 10m
Full, 100% of the Moon is Illuminated
Jun 23
Full
Jun 29
Last Quarter
Jul 8
New
Jul 15
First Quarter
Jul 22
Full

Hourly Weather History & Observations

Time (CDT) Temp. Heat Index Dew Point Humidity Pressure Visibility Wind Dir Wind Speed Gust Speed Precip Events Conditions
12:53 AM 73.0 °F - 71.1 °F 93% 30.07 in 10.0 mi Calm Calm - N/A   Clear
1:53 AM 72.0 °F - 71.1 °F 97% 30.05 in 10.0 mi Calm Calm - N/A   Clear
2:53 AM 72.0 °F - 70.0 °F 93% 30.04 in 10.0 mi Calm Calm - N/A   Clear
3:53 AM 71.1 °F - 69.1 °F 93% 30.04 in 10.0 mi Calm Calm - N/A   Clear
4:53 AM 71.1 °F - 69.1 °F 93% 30.04 in 10.0 mi Calm Calm - N/A   Clear
5:53 AM 70.0 °F - 69.1 °F 97% 30.06 in 10.0 mi North - - N/A   Clear
6:53 AM 72.0 °F - 70.0 °F 93% 30.07 in 10.0 mi Calm Calm - N/A   Clear
7:53 AM 75.9 °F - 72.0 °F 87% 30.08 in 10.0 mi Calm Calm - N/A   Clear
8:53 AM 80.1 °F 84.2 °F 73.0 °F 79% 30.09 in 10.0 mi ENE 3.5 mph - N/A   Clear
9:53 AM 82.9 °F 89.4 °F 73.9 °F 74% 30.10 in 10.0 mi Variable 6.9 mph - N/A   Mostly Cloudy
10:30 AM 84.2 °F 90.9 °F 73.4 °F 70% 30.11 in 10.0 mi Calm Calm - N/A   Scattered Clouds
10:53 AM 84.9 °F 90.7 °F 72.0 °F 65% 30.11 in 10.0 mi ENE 5.8 mph - N/A   Scattered Clouds
11:53 AM 84.9 °F 90.1 °F 71.1 °F 63% 30.10 in 10.0 mi North 8.1 mph 25.3 mph N/A   Scattered Clouds
12:53 PM 88.0 °F 92.9 °F 70.0 °F 55% 30.07 in 10.0 mi Calm Calm - N/A   Scattered Clouds
1:53 PM 89.1 °F 95.0 °F 71.1 °F 55% 30.05 in 10.0 mi Variable 4.6 mph - N/A   Scattered Clouds
2:53 PM 91.0 °F 97.6 °F 71.1 °F 52% 30.03 in 10.0 mi NE 4.6 mph - N/A   Clear
3:53 PM 90.0 °F 95.4 °F 70.0 °F 52% 30.03 in 10.0 mi NE 8.1 mph - N/A   Clear
4:21 PM 82.4 °F 87.2 °F 71.6 °F 70% 30.06 in 10.0 mi SE 20.7 mph 38.0 mph N/A   Squalls
4:33 PM 80.6 °F 83.9 °F 69.8 °F 70% 30.06 in 10.0 mi SE 21.9 mph 31.1 mph N/A   Mostly Cloudy
4:53 PM 79.0 °F - 69.1 °F 72% 30.04 in 10.0 mi SE 10.4 mph - N/A   Mostly Cloudy
5:53 PM 79.0 °F - 69.1 °F 72% 30.05 in 10.0 mi SW 8.1 mph - N/A   Clear
6:53 PM 78.1 °F - 70.0 °F 76% 30.05 in 10.0 mi SSE 3.5 mph - N/A   Clear
7:53 PM 78.1 °F - 70.0 °F 76% 30.06 in 10.0 mi ESE 6.9 mph - N/A   Clear
8:53 PM 75.9 °F - 71.1 °F 85% 30.06 in 10.0 mi SE 3.5 mph - N/A   Mostly Cloudy
9:53 PM 75.0 °F - 72.0 °F 90% 30.08 in 10.0 mi Calm Calm - N/A   Clear
10:53 PM 75.0 °F - 72.0 °F 90% 30.09 in 10.0 mi Calm Calm - N/A   Clear
11:53 PM 73.9 °F - 72.0 °F 93% 30.10 in 10.0 mi Calm Calm - N/A   Clear